Weather reports worldwide

Advertisment
Pratica Di Mare, Italy (16245): temperature & dewpoint: 09.07.2018 20:00:00 - 15.07.2018 20:00:00 (CEST)Pratica Di Mare, Italy (16245): wind speed: 09.07.2018 20:00:00 - 15.07.2018 20:00:00 (CEST)Pratica Di Mare, Italy (16245): wind direction: 09.07.2018 20:00:00 - 15.07.2018 20:00:00 (CEST)Pratica Di Mare, Italy (16245): reduced air pressure: 09.07.2018 20:00:00 - 15.07.2018 20:00:00 (CEST)Pratica Di Mare, Italy (16245): visibility: 09.07.2018 20:00:00 - 15.07.2018 20:00:00 (CEST)Pratica Di Mare, Italy (16245): sunshine duration: 09.07.2018 20:00:00 - 15.07.2018 20:00:00 (CEST)
Date & Time tt [°C] td [°C] ff [km/h] ff [kn] dd ppp [hPa] vv [km] sd [min]
15.07.2018 20:00:00 28,0 24,7 16 9 W 1013,3 20 -
15.07.2018 19:00:00 28,0 24,0 18 10 W - 10 -
15.07.2018 18:00:00 30,0 23,0 21 11 W - 10 -
15.07.2018 17:00:00 30,4 21,2 21 11 W 1013,5 20 -
15.07.2018 16:00:00 31,0 17,0 18 10 W - 10 -
15.07.2018 15:00:00 30,0 18,0 22 12 W - 10 -
15.07.2018 14:00:00 30,2 21,0 22 12 W 1013,7 20 -
15.07.2018 13:00:00 29,0 23,0 18 10 W - 10 -
15.07.2018 12:00:00 29,0 22,0 18 10 W - 10 -
15.07.2018 11:00:00 27,8 21,8 11 6 WSW 1013,7 20 -
15.07.2018 10:00:00 28,0 23,0 11 6 SW - 10 -
15.07.2018 09:00:00 28,0 22,0 8 4 SE - 10 -
15.07.2018 08:00:00 25,6 21,9 5 3 E 1013,3 12 -
15.07.2018 07:00:00 20,0 19,0 9 5 NNE - 10 -
15.07.2018 06:00:00 20,0 18,0 9 5 NNE - 10 -
15.07.2018 05:00:00 23,2 21,7 4 2 NE 1013,6 12 -
15.07.2018 04:00:00 23,0 21,0 8 4 ENE - 10 -
15.07.2018 03:00:00 22,0 20,0 8 4 ENE - 10 -
15.07.2018 02:00:00 25,0 22,3 8 4 NNE 1014,7 12 -
15.07.2018 01:00:00 24,0 21,0 8 4 N - 10 -
15.07.2018 00:00:00 24,0 23,0 9 5 N - 10 -
14.07.2018 23:00:00 24,8 23,4 8 4 N 1014,7 12 -
14.07.2018 22:00:00 25,0 23,0 5 3 NNE - 10 -
14.07.2018 21:00:00 27,0 25,0 8 4 WNW - 10 -
14.07.2018 20:00:00 27,0 25,2 9 5 W 1014,4 10 -
14.07.2018 19:00:00 29,0 26,0 13 7 W - 10 -
14.07.2018 18:00:00 29,0 23,0 13 7 SW - 10 -
14.07.2018 17:00:00 29,0 26,6 18 10 SSW 1014,7 15 -
14.07.2018 16:00:00 29,0 23,0 13 7 SSW - 10 -
14.07.2018 15:00:00 29,0 25,0 16 9 SSW - 10 -
14.07.2018 14:00:00 30,0 22,4 11 6 SSW 1016,0 20 -
14.07.2018 13:00:00 30,0 24,0 15 8 SSW - 10 -
14.07.2018 12:00:00 30,0 22,0 - - - - 10 -
14.07.2018 11:00:00 30,0 17,5 4 2 SSE 1017,3 20 -
14.07.2018 10:00:00 28,0 21,0 9 5 S - 10 -
14.07.2018 09:00:00 27,0 19,0 8 4 ESE - 10 -
14.07.2018 08:00:00 23,8 21,1 2 1 NW 1016,5 15 -
14.07.2018 07:00:00 21,0 17,0 2 1 E - 10 -
14.07.2018 06:00:00 22,0 19,0 8 4 E - 10 -
14.07.2018 05:00:00 21,8 19,0 9 5 NNE 1016,6 15 -
14.07.2018 04:00:00 22,0 21,0 8 4 NNE - 10 -
14.07.2018 03:00:00 22,0 21,0 5 3 NNW - 10 -
14.07.2018 02:00:00 22,2 21,5 22 12 N 1016,7 15 -
14.07.2018 01:00:00 22,0 22,0 8 4 N - 10 -
14.07.2018 00:00:00 22,0 21,0 8 4 NNE - 10 -
13.07.2018 23:00:00 23,4 22,7 2 1 N 1016,5 15 -
13.07.2018 22:00:00 25,0 23,0 4 2 NNE - 10 -
13.07.2018 21:00:00 26,0 24,0 5 3 NW - 10 -
13.07.2018 20:00:00 28,0 24,7 13 7 WNW 1016,6 20 -
13.07.2018 19:00:00 29,0 25,0 16 9 WNW - 10 -
13.07.2018 18:00:00 29,0 25,0 16 9 W - 10 -
13.07.2018 17:00:00 29,2 24,3 15 8 W 1016,7 20 0
13.07.2018 16:00:00 29,0 25,0 15 8 WSW - 10 -
13.07.2018 15:00:00 24,0 19,0 15 8 SW - 10 -
13.07.2018 14:00:00 28,2 22,2 16 9 SW 1017,7 20 -
13.07.2018 13:00:00 27,0 22,0 15 8 SW - 10 -
13.07.2018 12:00:00 24,0 18,0 18 10 SSW - 10 -
13.07.2018 11:00:00 24,0 13,0 8 4 SW 1017,5 20 0
13.07.2018 10:00:00 23,0 17,0 13 7 SW - 10 -
13.07.2018 09:00:00 23,0 17,0 4 2 N - 10 -
13.07.2018 08:00:00 22,0 20,3 5 3 NNE 1016,6 15 -
13.07.2018 07:00:00 20,0 19,0 8 4 NNE - 10 -
13.07.2018 06:00:00 20,0 19,0 8 4 NNE - 8 -
13.07.2018 05:00:00 20,0 19,2 8 4 NNE 1016,6 15 -
13.07.2018 04:00:00 - - - - - - - -
13.07.2018 03:00:00 20,0 20,0 4 2 NE - 10 -
13.07.2018 02:00:00 21,2 20,4 4 2 NNE 1016,6 15 -
13.07.2018 01:00:00 22,0 21,0 5 3 NNE - 10 -
13.07.2018 00:00:00 22,0 21,0 5 3 NNE - 10 -
12.07.2018 23:00:00 23,0 22,2 5 3 N 1015,9 15 -
12.07.2018 22:00:00 25,0 24,0 2 1 NE - 10 -
12.07.2018 21:00:00 25,0 24,0 5 3 W - 10 -
12.07.2018 20:00:00 26,8 23,3 5 3 WSW 1015,6 15 -
12.07.2018 19:00:00 27,0 23,0 11 6 WSW - 10 -
12.07.2018 18:00:00 - - - - - - - -
12.07.2018 17:00:00 28,4 22,6 16 9 SW 1015,7 15 -
12.07.2018 16:00:00 29,0 21,0 18 10 WSW - 10 -
12.07.2018 15:00:00 29,0 21,0 16 9 WSW - 10 -
12.07.2018 14:00:00 29,2 25,6 24 13 S 1015,7 15 -
12.07.2018 13:00:00 29,0 25,0 26 14 S - 10 -
12.07.2018 12:00:00 28,0 24,0 22 12 S - 10 -
12.07.2018 11:00:00 28,2 23,8 21 11 S 1015,4 15 -
12.07.2018 10:00:00 28,0 23,0 16 9 S - 10 -
12.07.2018 09:00:00 27,0 24,0 15 8 SE - 10 -
12.07.2018 08:00:00 25,0 22,7 15 8 ESE 1014,4 20 -
12.07.2018 07:00:00 23,0 21,0 15 8 E - 10 -
12.07.2018 06:00:00 23,0 21,0 16 9 E - 10 -
12.07.2018 05:00:00 23,4 21,3 16 9 E 1014,4 12 -
12.07.2018 04:00:00 24,0 23,0 15 8 E - 10 -
12.07.2018 03:00:00 23,0 22,0 11 6 E - 10 -
12.07.2018 02:00:00 23,4 21,1 8 4 ESE 1014,4 12 -
12.07.2018 01:00:00 24,0 22,0 9 5 E - 10 -
12.07.2018 00:00:00 25,0 23,0 9 5 ESE - 10 -
11.07.2018 23:00:00 24,6 22,5 9 5 ESE 1014,2 12 -
11.07.2018 22:00:00 25,0 23,0 9 5 ESE - 10 -
11.07.2018 21:00:00 26,0 23,0 13 7 S - 10 -
11.07.2018 20:00:00 27,0 21,1 16 9 S 1013,2 20 -
11.07.2018 19:00:00 28,0 21,0 21 11 S - 10 -
11.07.2018 18:00:00 29,0 21,0 18 10 S - 10 -
11.07.2018 17:00:00 28,6 20,6 18 10 S 1013,2 20 -
11.07.2018 16:00:00 29,0 20,0 18 10 SSW - 10 -
11.07.2018 15:00:00 29,0 20,0 18 10 S - 10 -
11.07.2018 14:00:00 28,6 21,1 18 10 SW 1013,3 20 -
11.07.2018 13:00:00 28,0 26,0 24 13 S - 10 -
11.07.2018 12:00:00 29,0 25,0 28 15 S - 10 -
11.07.2018 11:00:00 28,0 24,4 28 15 S 1013,3 15 -
11.07.2018 10:00:00 27,0 23,0 24 13 SSE - 10 -
11.07.2018 09:00:00 26,0 23,0 16 9 SE - 10 -
11.07.2018 08:00:00 23,4 22,4 16 9 ESE 1013,1 10 -
11.07.2018 07:00:00 23,0 23,0 18 10 ESE - 10 -
11.07.2018 06:00:00 23,0 22,0 11 6 ESE - 10 -
11.07.2018 05:00:00 23,4 22,7 13 7 ESE 1013,2 10 -
11.07.2018 04:00:00 23,0 22,0 13 7 E - 10 -
11.07.2018 03:00:00 24,0 23,0 16 9 ESE - 10 -
11.07.2018 02:00:00 23,8 22,8 15 8 ESE 1013,2 10 -
11.07.2018 01:00:00 24,0 23,0 11 6 E - 10 -
11.07.2018 00:00:00 24,0 23,0 9 5 ESE - 10 -
10.07.2018 23:00:00 24,0 23,0 8 4 ESE 1013,6 10 -
10.07.2018 22:00:00 24,0 23,0 8 4 SE - 10 -
10.07.2018 21:00:00 25,0 24,0 5 3 SSE - 10 -
10.07.2018 20:00:00 27,0 24,8 9 5 S 1013,1 20 -
10.07.2018 19:00:00 27,0 25,0 15 8 SSW - 10 -
10.07.2018 18:00:00 27,0 25,0 13 7 SSW - 10 -
10.07.2018 17:00:00 27,4 24,9 16 9 SSW 1013,5 20 -
10.07.2018 16:00:00 28,0 25,0 16 9 SSW - 10 -
10.07.2018 15:00:00 27,0 25,0 18 10 S - 10 -
10.07.2018 14:00:00 27,4 24,7 22 12 S 1013,9 20 -
10.07.2018 13:00:00 27,0 24,0 22 12 S - 10 -
10.07.2018 12:00:00 27,0 24,0 22 12 S - 10 -
10.07.2018 11:00:00 26,8 22,7 21 11 S 1013,9 20 -
10.07.2018 10:00:00 27,0 22,0 15 8 S - 10 -
10.07.2018 09:00:00 26,0 21,0 13 7 ESE - 10 -
10.07.2018 08:00:00 24,0 20,3 15 8 ESE 1013,7 18 -
10.07.2018 07:00:00 21,0 18,0 4 2 ENE - 10 -
10.07.2018 06:00:00 20,0 19,0 5 3 N - 10 -
10.07.2018 05:00:00 22,0 21,2 4 2 SSE 1014,4 15 -
10.07.2018 04:00:00 23,0 22,0 8 4 E - 10 -
10.07.2018 03:00:00 23,0 22,0 4 2 ESE - 10 -
10.07.2018 02:00:00 24,0 22,1 13 7 E 1014,3 20 -
10.07.2018 01:00:00 24,0 22,0 13 7 E - 10 -
10.07.2018 00:00:00 23,0 21,0 9 5 ENE - 10 -
09.07.2018 23:00:00 23,0 20,3 5 3 NE 1013,7 20 -
09.07.2018 22:00:00 24,0 22,0 5 3 WNW - 10 -
09.07.2018 21:00:00 27,0 22,0 8 4 NW - 10 -
09.07.2018 20:00:00 27,0 22,0 16 9 W 1012,7 15 -

tt = temperature
td = dewpoint
ff = wind speed
dd = wind direction
ppp = reduced air pressure
vv = visibility
sd = sunshine duration

Next stations